Regional Weather Roundup
Issued by NWS

Home | Current Version | Previous Version | Text Only | Print | Product List | Glossary On
Versions: 1 2 3 4 5 6 7 8 9 10 11 12 13 14 15 16 17 18 19 20 21 22 23 24 25 26 27 28 29 30 31 32 33 34 35 36 37 38 39 40 41 42 43 44 45 46 47 48 49 50
000
ASUS44 KBMX 281810
RWRAL

ALABAMA REGIONAL WEATHER ROUNDUP
NATIONAL WEATHER SERVICE BIRMINGHAM AL
1200 PM CST SUN DEC 28 2014

NOTE: "FAIR" INDICATES FEW OR NO CLOUDS BELOW 12,000 FEET
WITH NO SIGNIFICANT WEATHER AND/OR OBSTRUCTIONS TO VISIBILITY.

THE REMARK "TC" DENOTES TEMPERATURE IN DEGREES CELSIUS.

ALZ001>011-014-016>018-020-281900-
NORTH ALABAMA

CITY           SKY/WX    TMP DP  RH WIND       PRES   REMARKS
MUSCLE SHOALS  CLOUDY    48  43  82 N3        30.12F
6HR MIN TEMP:  47; 6HR MAX TEMP:  53; 6HR PCP:  0.03;

HUNTSVILLE     CLOUDY    52  49  89 N12       30.09F
6HR MIN TEMP:  52; 6HR MAX TEMP:  55; 6HR PCP:  0.08;

DECATUR        CLOUDY    49  46  90 N10       30.10F
6HR MIN TEMP:  49; 6HR MAX TEMP:  53; 6HR PCP:  0.06;

HALEYVILLE     FOG       47  47 100 CALM      30.11F VSB<1/4
6HR MIN TEMP:  47; 6HR MAX TEMP:  51; 6HR PCP:  0.04;

GADSDEN        CLOUDY    59  55  88 CALM      30.06F
6HR MIN TEMP:  54; 6HR MAX TEMP:  59; 6HR PCP:  0.09;

$$

ALZ012-013-022-023-030>036-040>044-281900-
WEST CENTRAL ALABAMA

CITY           SKY/WX    TMP DP  RH WIND       PRES   REMARKS
TUSCALOOSA     CLOUDY    59  56  89 NW7       30.08F
6HR MIN TEMP:  57; 6HR MAX TEMP:  61; 6HR PCP:  0.03;

$$

ALZ015-024>027-033>036-040>044-281900-
CENTRAL ALABAMA

CITY           SKY/WX    TMP DP  RH WIND       PRES   REMARKS
BIRMINGHAM     CLOUDY    60  57  89 CALM      30.07F
6HR MIN TEMP:  56; 6HR MAX TEMP:  60; 6HR PCP:  0.09;

MONTGOMERY     CLOUDY    68  63  84 W8        30.06F
6HR MIN TEMP:  56; 6HR MAX TEMP:  69; 6HR PCP:  0.01;

SHELBY CO ARPT CLOUDY    62  58  86 CALM      30.06F
6HR MIN TEMP:  56; 6HR MAX TEMP:  62; 6HR PCP:  0.23;

MAXWELL AFB    CLOUDY    64  62  93 W3        30.06F
6HR MIN TEMP:  56; 6HR MAX TEMP:  64; 6HR PCP:  0.03;

GREENVILLE     CLOUDY    69  64  84 SW7       30.05F
6HR MIN TEMP:  60; 6HR MAX TEMP:  69; 6HR PCP:  0.16;

$$

ALZ019-021-028-029-037-038-045>048-281900-
EAST CENTRAL ALABAMA

CITY           SKY/WX    TMP DP  RH WIND       PRES   REMARKS
ANNISTON       CLOUDY    59  57  93 W6        30.07F FOG
6HR MIN TEMP:  55; 6HR MAX TEMP:  59; 6HR PCP:  0.29;

ALEXANDER CITY FOG       62  57  86 CALM      30.06F VSB 1/2
6HR MIN TEMP:  57; 6HR MAX TEMP:  62; 6HR PCP:  0.23;

AUBURN         CLOUDY    61  59  94 SW8       30.09F
6HR MIN TEMP:  54; 6HR MAX TEMP:  61; 6HR PCP:  0.30;

$$

ALZ051>064-281900-
SOUTHWEST ALABAMA

CITY           SKY/WX    TMP DP  RH WIND       PRES   REMARKS
MOBILE         PTSUNNY   72  67  84 W6        30.06F
6HR MIN TEMP:  64; 6HR MAX TEMP:  73;

BROOKLEY FIELD CLOUDY    68  67  96 S8        30.07F
6HR MIN TEMP:  65; 6HR MAX TEMP:  70;

EVERGREEN      CLOUDY    71  66  84 W3        30.06F
6HR MIN TEMP:  61; 6HR MAX TEMP:  71; 6HR PCP:  0.24;

$$

ALZ049-050-065>069-281900-
SOUTHEAST ALABAMA

CITY           SKY/WX    TMP DP  RH WIND       PRES   REMARKS
DOTHAN         LGT RAIN  70  66  88 SW7       30.11F
6HR MIN TEMP:  61; 6HR MAX TEMP:  70; 6HR PCP:  0.01;

OZARK          LGT RAIN  68  63  83 S3        30.07F
                                      6HR PCP:  0.05;

TROY           CLOUDY    67  65  93 S6        30.07F
6HR MIN TEMP:  61; 6HR MAX TEMP:  67; 6HR PCP:  0.51;

EUFAULA        LGT RAIN  68  65  90 SW5       30.06F
6HR MIN TEMP:  59; 6HR MAX TEMP:  68; 6HR PCP:  0.01;

$$



USA.gov is the U.S. government's official web portal to all federal, state and local government web resources and services.